Weather History for KSHV - October, 2013

Change the Weather History Date:

Sunday, October 20, 2013

  Actual Average Record
Temperature  
Mean Temperature 57 °F 65 °F  
Max Temperature 71 °F 77 °F 91 °F (1941)
Min Temperature 42 °F 53 °F 29 °F (1989)
Degree Days  
Heating Degree Days 8 3  
Month to date heating degree days 22 35  
Since 1 July heating degree days 22 41  
Cooling Degree Days 0 3  
Month to date cooling degree days 117 98  
Year to date cooling degree days 2678 2423  
Growing Degree Days 6 (Base 50)    
Moisture  
Dew Point 45 °F    
Average Humidity 68    
Maximum Humidity 96    
Minimum Humidity 40    
Precipitation  
Precipitation 0.00 in 0.18 in 2.62 in (1984)
Month to date precipitation 3.90 3.08  
Year to date precipitation 40.17 40.23  
Snow  
Snow 0.00 in - - ()
Month to date snowfall 0.0  
Since 1 July snowfall 0.0  
Since 1 September snowfall 0.0  
Snow Depth 0.00 in    
Sea Level Pressure  
Sea Level Pressure 30.03 in    
Wind  
Wind Speed 4 mph (SSE)    
Max Wind Speed 12 mph    
Max Gust Speed 20 mph    
Visibility 10 miles    
Events Fog    
T = Trace of Precipitation, MM = Missing Value Source: NWS Daily Summary

Daily Weather History Graph

Daily Weather History Graph

Search for Another Location

Airport or City:

Trip Planner

Search our weather history database for the weather conditions in past years. The results will help you decide how hot, cold, wet, or windy it might be!

Date:

Astronomy

Oct. 20, 2013 Rise Set
Actual Time 7:23 AM CDT 6:36 PM CDT
Civil Twilight 6:58 AM CDT 7:01 PM CDT
Nautical Twilight 6:29 AM CDT 7:30 PM CDT
Astronomical Twilight 6:01 AM CDT 7:58 PM CDT
Moon 7:52 PM CDT (10/20) 8:55 AM CDT (10/20)
Length of Visible Light 12h 03m
Length of Day
11h 13m
Full, 97% of the Moon is Illuminated
Oct 20
Full
Oct 26
Last Quarter
Nov 3
New
Nov 9
First Quarter
Nov 17
Full

Hourly Weather History & Observations

Time (CDT) Temp. Dew Point Humidity Pressure Visibility Wind Dir Wind Speed Gust Speed Precip Events Conditions
12:56 AM 46.9 °F 43.0 °F 86% 30.07 in 10.0 mi Calm Calm - N/A   Clear
1:56 AM 45.0 °F 42.1 °F 90% 30.06 in 10.0 mi Calm Calm - N/A   Clear
2:56 AM 45.0 °F 42.1 °F 90% 30.05 in 10.0 mi Calm Calm - N/A   Clear
3:56 AM 44.1 °F 42.1 °F 93% 30.06 in 10.0 mi Calm Calm - N/A   Clear
4:56 AM 43.0 °F 41.0 °F 93% 30.06 in 10.0 mi Calm Calm - N/A   Clear
5:56 AM 42.1 °F 39.9 °F 92% 30.07 in 10.0 mi Calm Calm - N/A   Clear
6:56 AM 42.1 °F 39.9 °F 92% 30.09 in 10.0 mi Calm Calm - N/A   Partly Cloudy
7:56 AM 43.0 °F 41.0 °F 93% 30.09 in 10.0 mi Calm Calm - N/A Fog Patches of Fog
8:15 AM 44.6 °F 42.8 °F 93% 30.10 in 10.0 mi Calm Calm - N/A   Partly Cloudy
8:56 AM 51.1 °F 46.0 °F 83% 30.10 in 10.0 mi Calm Calm - N/A   Partly Cloudy
9:56 AM 57.0 °F 46.9 °F 69% 30.11 in 10.0 mi SSE 6.9 mph - N/A   Partly Cloudy
10:56 AM 62.1 °F 46.9 °F 58% 30.10 in 10.0 mi South 5.8 mph - N/A   Clear
11:56 AM 64.0 °F 45.0 °F 50% 30.09 in 10.0 mi Variable 5.8 mph - N/A   Clear
12:56 PM 68.0 °F 46.0 °F 45% 30.06 in 10.0 mi SSE 6.9 mph - N/A   Clear
1:56 PM 68.0 °F 44.1 °F 42% 30.02 in 10.0 mi Variable 6.9 mph - N/A   Clear
2:56 PM 69.1 °F 44.1 °F 40% 29.99 in 10.0 mi South 9.2 mph - N/A   Clear
3:56 PM 70.0 °F 45.0 °F 41% 29.98 in 10.0 mi SSE 8.1 mph - N/A   Clear
4:56 PM 70.0 °F 46.0 °F 42% 29.97 in 10.0 mi South 5.8 mph - N/A   Clear
5:56 PM 66.9 °F 46.9 °F 49% 29.96 in 10.0 mi SSE 6.9 mph - N/A   Clear
6:56 PM 62.1 °F 50.0 °F 65% 29.96 in 10.0 mi SSE 4.6 mph - N/A   Clear
7:56 PM 57.9 °F 50.0 °F 75% 29.98 in 10.0 mi Calm Calm - N/A   Clear
8:56 PM 55.9 °F 50.0 °F 80% 29.97 in 10.0 mi SE 3.5 mph - N/A   Clear
9:56 PM 55.9 °F 48.0 °F 75% 29.97 in 10.0 mi SE 3.5 mph - N/A   Clear
10:56 PM 54.0 °F 48.0 °F 80% 29.97 in 10.0 mi SSE 3.5 mph - N/A   Clear
11:56 PM 53.1 °F 46.9 °F 80% 29.97 in 10.0 mi ESE 3.5 mph - N/A   Clear